Regional Weather Roundup
Issued by NWS Kansas City/Pleasant Hill, MO

Home | Current Version | Previous Version | Text Only | Print | Product List | Glossary On
Versions: 1 2 3 4 5 6 7 8 9 10 11 12 13 14 15 16 17 18 19 20 21 22 23 24 25 26 27 28 29 30 31 32 33 34 35 36 37 38 39 40 41 42 43 44 45 46 47 48 49 50
000
ASUS43 KEAX 231211
RWREAX

WEATHER ROUNDUP FOR EASTERN KANSAS AND NORTHWEST MISSOURI
NATIONAL WEATHER SERVICE KANSAS CITY/PLEASANT HILL MO
700 AM CDT WED JUL 23 2014

KSZ040-057-103>105-MOZ028-029-037-043-231300-
...KANSAS CITY METROPOLITAN AREA...

CITY           SKY/WX    TMP DP  RH WIND       PRES   REMARKS
K.C. INTL      PTCLDY    71  67  87 N8        30.16R
6HR MIN TEMP:  70; 6HR MAX TEMP:  81;

K.C. DOWNTOWN  MOCLDY    76  67  73 N10       30.13R
6HR MIN TEMP:  76; 6HR MAX TEMP:  84;

LEES SUMMIT    PTCLDY    75  67  76 NE7       30.13S
6HR MIN TEMP:  75; 6HR MAX TEMP:  83;

OLATHE - IXD   MOCLDY    76  68  76 NE8       30.14R
6HR MIN TEMP:  75; 6HR MAX TEMP:  82;

OLATHE - OJC   CLOUDY    76  67  73 NE12G18   30.12R
6HR MIN TEMP:  75; 6HR MAX TEMP:  84;

LAWRENCE       CLEAR     75  67  76 VRB6      30.14R

$$

MOZ001>008-011>017-020>025-030>033-038>040-044>046-053-054-231300-
...NORTHERN AND CENTRAL MISSOURI...

CITY           SKY/WX    TMP DP  RH WIND       PRES   REMARKS
ST. JOSEPH     CLEAR     68  65  90 N6        30.16R
6HR MIN TEMP:  67; 6HR MAX TEMP:  77;

MOSBY          SUNNY     72  66  83 NW5       30.14R
WARRENSBURG    MOCLDY    73  68  83 N5        30.11R
WHITEMAN AFB   MOCLDY    74  63  68 N7        30.10R
6HR MIN TEMP:  74; 6HR MAX TEMP:  82;

CLINTON        CLEAR     77  73  88 N7        30.09R
SEDALIA        CLEAR     75  70  84 N9        30.11R
6HR MIN TEMP:  74; 6HR MAX TEMP:  83;

WARSAW         NOT AVBL
MARSHALL       CLEAR     77  72  83 N8        30.11S
CHILLICOTHE      N/A     71  66  84 VRB5      30.14R
6HR MIN TEMP:  70; 6HR MAX TEMP:  81;

MOBERLY        CLEAR     73  66  78 N7        30.10S
KIRKSVILLE     CLEAR     70  65  84 N9        30.13R
6HR MIN TEMP:  68; 6HR MAX TEMP:  77;


$$

MOZ041-047>049-056>058-063>065-088>090-097-231300-
...EASTERN AND SOUTHERN MISSOURI...

CITY           SKY/WX    TMP DP  RH WIND       PRES   REMARKS
ST. LOUIS INTL MOSUNNY   80  75  84 N7        30.01S
6HR MIN TEMP:  80; 6HR MAX TEMP:  83;

SPIRIT OF STL  PTSUNNY   81  75  83 N5        30.01R
COLUMBIA       CLEAR     75  71  87 N9        30.08R
JEFFERSON CITY PTCLDY    79  72  79 N8        30.06R
MEXICO         CLEAR    N/A N/A N/A N9        30.08R
HANNIBAL       SUNNY     75  68  78 N7        30.08R
ROLLA          CLOUDY    77  74  90 CALM      30.05R
LEBANON        CLEAR     79  75  89 NW7       30.09R FOG
OSAGE BEACH    CLOUDY    79  75  89 N5        30.06R
SPRINGFIELD    CLEAR     77  74  90 CALM      30.09R FOG
BRANSON        MOCLDY    77  73  88 SW5       30.11R
NEVADA         CLEAR     77  75  94 N7        30.10R FOG
JOPLIN         CLEAR     77  75  93 SW7       30.09R FOG
WEST PLAINS    CLEAR     73  69  87 W3        30.08F

$$

IAZ060-094-KSZ022-034>040-054-083-096-NEZ052-066-093-231300-
...KANSAS...SOUTHEAST NEBRASKA AND IOWA...

CITY           SKY/WX    TMP DP  RH WIND       PRES   REMARKS
TOPEKA         CLEAR     74  68  81 N6        30.16R
6HR MIN TEMP:  74; 6HR MAX TEMP:  83;

MANHATTAN      MOCLDY    74  66  76 NE10      30.16R
EMPORIA        CLOUDY    75  71  87 NE9       30.14R
CHANUTE        PTCLDY    78  76  93 N6        30.10R FOG
WICHITA        MOCLDY    75  71  87 S3        30.12R FOG
OMAHA          PTCLDY    64  58  80 N6        30.23R
LINCOLN        CLEAR     66  59  78 N7        30.24S
FALLS CITY     CLEAR     67  62  84 NW6       30.19R
LAMONI         CLEAR     66  62  87 N6        30.16S
DES MOINES     CLEAR     68  59  73 N7        30.17R

$$




USA.gov is the U.S. government's official web portal to all federal, state and local government web resources and services.